Theta_e
297 295 292 292 292 292 292 292 292 291 291 291 291 291 291 292 296 295 297 298 298 296 295 297 298 297 298 297 296 296 295 295 296 292 294 297 301 302 302 301 302 300 301 300 303 301 302 303 303 306 305 303 301 300
297 294 292 292 292 292 292 292 292 291 291 291 290 291 291 291 293 296 297 298 298 297 294 297 297 297 298 299 298 296 297 296 292 290 293 298 302 302 303 303 302 304 303 300 299 300 301 301 302 302 301 301 300 299
296 293 292 292 292 292 292 292 292 292 291 291 291 291 291 291 292 295 296 297 298 296 295 296 299 300 300 300 300 296 296 299 294 297 298 299 300 301 302 302 302 302 303 303 304 304 303 302 303 302 301 299 298 297
296 293 292 292 292 292 292 292 292 292 292 291 290 291 291 292 294 294 296 298 297 296 295 296 297 298 298 300 301 300 299 299 299 297 299 296 299 299 298 301 300 299 301 302 303 303 302 302 301 301 299 298 297 296
295 292 292 292 292 292 292 292 292 292 292 291 290 291 292 292 293 292 295 298 297 295 291 294 297 299 300 300 300 300 300 298 298 296 295 297 298 297 296 297 297 298 296 298 299 301 299 300 299 299 297 296 296 296
295 293 293 293 293 292 292 292 292 292 291 291 291 292 291 292 292 294 296 298 297 297 293 294 297 299 299 300 301 300 298 297 296 297 296 297 299 298 298 297 298 299 298 298 298 298 298 299 298 297 296 295 295 295
295 294 293 293 293 292 292 292 292 292 291 291 291 291 291 292 291 295 296 298 296 295 295 294 295 299 300 299 299 299 299 297 296 297 297 297 298 298 297 298 300 300 299 298 298 298 298 297 296 296 295 294 294 294
294 294 293 293 292 292 292 292 292 292 291 291 292 293 291 292 293 294 296 297 295 296 296 298 296 297 300 296 297 299 298 298 297 297 297 297 297 297 298 298 298 298 299 300 299 298 297 296 296 295 294 293 293 293
294 294 294 293 292 292 293 292 291 291 290 291 291 291 294 295 297 298 297 297 296 296 295 295 295 294 298 297 296 297 298 296 297 298 298 297 297 297 300 299 299 299 299 299 299 298 297 297 296 295 293 293 292 292
294 294 294 292 292 293 292 292 291 290 290 292 293 296 291 298 297 295 296 293 296 295 295 294 295 296 298 296 295 296 294 296 297 297 296 296 295 300 299 298 298 298 299 298 297 297 297 296 295 295 293 292 292 292
293 293 293 293 292 292 292 291 291 290 295 295 295 294 296 295 294 294 291 294 293 295 295 295 295 295 297 296 295 294 293 295 296 296 296 297 295 298 298 296 297 297 297 297 296 296 296 296 295 294 293 292 291 290
293 293 292 291 291 291 291 291 290 292 294 293 293 292 294 295 294 296 293 295 296 297 297 297 298 298 297 296 294 295 297 296 297 295 294 293 297 298 297 298 297 297 297 297 296 296 296 296 294 293 292 291 290 290
292 291 290 290 290 291 290 290 290 290 291 294 295 295 294 292 293 295 290 296 293 295 296 297 296 296 295 295 294 296 295 293 295 292 293 295 297 297 296 296 296 296 296 296 296 296 295 295 293 292 290 290 290 290
291 291 290 290 290 290 290 290 290 291 292 295 294 291 292 291 294 295 295 296 295 296 296 296 296 296 293 294 294 295 296 296 294 291 296 294 297 296 296 296 296 295 293 293 294 295 293 292 291 292 291 291 288 289
290 290 290 290 290 290 290 290 291 291 293 294 294 291 294 294 295 296 295 297 297 296 296 294 294 295 294 294 296 296 296 294 295 295 293 296 297 297 295 295 294 292 289 291 292 291 289 293 292 291 293 292 291 291
290 290 290 290 290 290 290 291 292 292 294 294 294 295 295 295 295 297 297 296 297 296 295 295 296 293 294 295 297 294 297 292 294 298 295 295 296 295 294 293 292 291 291 290 291 291 292 292 292 292 292 292 292 292
290 290 291 290 290 290 290 292 292 294 293 294 293 293 294 294 297 297 297 297 296 296 294 295 293 293 294 294 293 295 293 293 295 295 295 296 294 293 292 292 289 291 290 290 290 290 289 289 290 290 291 291 290 290
290 290 291 291 291 291 291 291 293 293 293 292 293 293 294 294 294 295 296 296 296 296 296 297 296 296 294 296 295 294 294 293 293 295 294 295 295 293 292 291 291 291 290 289 288 288 288 287 287 287 288 288 289 289
290 291 290 291 291 291 291 291 291 293 293 294 293 294 294 294 295 295 295 295 296 296 296 297 298 297 296 294 294 293 293 293 294 293 293 294 293 291 291 291 291 289 288 287 287 286 286 287 286 287 287 287 287 288
291 291 290 291 291 292 293 293 292 292 294 295 295 294 294 295 295 293 294 295 295 295 295 296 296 295 295 295 294 294 293 293 293 293 293 291 291 291 291 291 288 287 286 286 286 286 286 286 287 286 286 286 288 289
291 291 290 290 290 291 293 294 293 293 294 294 295 295 295 295 294 294 294 295 295 296 294 294 294 293 293 294 295 294 293 293 293 293 292 291 290 291 290 287 287 286 285 285 282 285 287 286 286 286 286 286 286 287
291 290 289 289 290 290 291 291 292 294 294 294 295 295 295 293 293 294 293 295 295 296 294 294 294 291 292 294 293 295 295 295 292 289 289 289 288 287 286 286 286 283 284 285 286 285 286 286 285 285 285 285 285 286
290 290 289 289 291 292 292 292 293 293 293 295 295 296 295 295 294 294 293 295 294 292 293 294 294 295 294 295 295 295 295 294 292 291 289 288 287 287 287 286 285 283 280 285 286 285 285 284 284 284 284 283 283 284
290 290 292 291 290 291 292 293 293 294 294 295 295 295 295 295 295 295 295 293 292 292 292 294 291 291 291 293 290 292 293 294 291 289 289 287 286 286 286 285 284 284 284 284 285 285 283 283 283 282 283 282 282 282
290 291 291 293 292 290 294 292 293 294 292 294 295 294 293 295 293 294 293 291 291 290 290 290 289 290 289 288 287 287 292 292 289 287 287 287 287 286 285 285 284 284 283 283 283 283 284 282 283 282 283 282 282 283
290 291 290 290 291 292 293 291 292 292 294 293 293 294 294 294 295 292 292 290 290 289 289 286 287 288 288 289 288 287 289 290 290 287 287 287 286 285 283 283 282 283 283 282 282 282 282 282 282 282 283 281 281 280
291 291 292 290 294 293 292 293 294 294 293 294 294 294 293 292 288 289 289 288 288 289 290 291 291 287 288 288 291 290 289 288 288 288 287 286 285 285 285 284 282 284 282 282 282 281 281 281 281 282 281 280 279 279
290 291 290 290 291 292 289 291 293 293 292 294 294 294 293 289 289 290 289 291 290 289 289 290 291 290 290 290 289 287 286 285 285 284 284 283 283 283 283 284 283 282 282 281 280 280 280 280 280 281 280 279 279 278
291 291 292 289 289 291 292 291 292 293 293 294 293 292 292 293 290 288 290 290 289 289 289 288 289 288 288 287 287 286 285 284 282 281 282 281 279 281 282 282 281 280 280 279 279 279 279 279 281 281 279 279 279 277
290 292 291 290 289 289 290 291 293 293 293 292 293 293 292 291 292 291 290 289 289 285 289 290 289 288 284 284 284 285 284 284 283 282 281 281 282 282 281 281 280 281 280 280 279 278 278 279 279 279 278 277 277 275
292 292 292 292 290 290 292 293 292 291 291 290 289 290 290 287 290 291 290 289 290 290 289 288 289 289 288 286 285 284 284 285 284 283 284 284 284 283 281 281 281 280 280 280 280 279 279 280 278 277 275 274 274 273
292 292 292 292 293 292 291 292 292 292 288 288 287 287 286 287 288 287 283 285 288 288 287 286 286 285 284 285 287 287 287 286 285 284 284 284 283 283 282 281 280 280 280 280 280 280 280 278 277 275 274 273 272 272
293 293 292 292 292 293 292 291 291 289 286 286 286 285 285 284 285 282 283 282 282 282 281 281 281 281 281 282 283 287 288 286 286 284 283 284 283 282 281 281 280 280 280 279 279 278 277 276 275 274 273 272 271 270
Wind_Speed
18 16 15 14 12 9 7 6 4 4 4 5 6 6 7 8 8 7 6 4 0 2 7 4 6 8 6 2 2 6 5 5 4 5 2 3 3 3 5 6 7 2 2 1 1 2 3 10 6 4 3 2 6 8
17 17 16 13 11 8 6 4 2 3 4 6 7 7 7 7 6 5 4 6 6 2 6 25 28 28 18 12 2 3 3 2 2 3 3 3 2 2 4 4 9 5 3 2 3 2 4 5 5 4 5 6 7 7
19 17 16 13 10 7 5 2 1 4 6 7 8 8 8 7 7 5 8 8 3 2 6 3 4 8 4 10 6 2 2 0 2 3 1 3 3 0 2 3 3 3 6 4 1 5 9 11 7 14 6 8 9 8
19 18 16 13 9 7 4 1 2 5 7 8 9 9 9 8 9 8 7 6 3 2 3 5 18 12 11 6 7 10 8 2 2 2 2 2 3 3 3 1 1 4 2 2 4 5 3 7 2 1 8 9 11 9
20 18 15 12 9 7 4 2 4 6 8 9 10 10 10 10 11 10 10 11 7 3 2 5 19 8 4 6 6 4 5 3 2 2 1 3 3 4 4 2 4 2 2 3 2 3 3 1 6 7 9 7 6 4
20 17 14 12 9 7 5 4 6 8 10 11 11 11 10 11 9 5 2 4 9 7 1 3 7 5 7 9 7 4 4 3 3 3 3 3 3 2 2 2 7 11 5 6 3 5 4 8 6 8 8 7 7 7
19 17 14 12 10 7 6 5 8 10 12 13 13 13 11 11 7 5 2 3 3 4 1 3 4 4 5 4 1 1 2 2 3 2 2 3 3 3 1 1 2 5 9 7 5 3 5 7 4 7 8 8 9 8
18 16 15 12 10 8 6 7 9 12 14 13 13 13 11 6 6 8 11 12 5 4 1 2 4 3 5 2 1 2 1 0 1 3 3 3 4 2 1 3 6 8 5 7 8 11 3 6 7 7 8 7 6 5
18 16 14 12 10 8 7 8 11 15 12 12 11 6 2 3 4 3 3 7 5 3 2 2 1 3 2 1 1 3 2 1 3 3 3 1 2 2 1 4 5 5 5 5 6 7 6 7 6 6 7 6 5 5
17 15 14 13 11 9 7 7 14 14 12 9 5 3 1 3 2 2 1 1 1 2 3 3 2 3 1 1 2 1 1 2 1 4 0 1 2 5 3 3 5 4 5 6 6 5 5 4 5 5 6 4 3 5
18 16 15 12 9 9 8 8 11 12 3 1 2 1 4 2 3 1 1 3 2 3 3 4 6 3 2 1 2 2 2 2 1 4 3 2 2 2 4 1 5 5 5 6 5 4 5 4 4 5 6 5 5 6
16 15 14 14 15 14 12 9 7 3 3 6 6 6 4 1 1 2 3 3 4 4 4 4 4 4 2 2 2 3 2 2 4 1 3 3 2 5 5 1 4 5 6 5 6 7 6 8 8 6 5 5 4 5
19 17 16 14 13 12 11 9 7 6 5 2 3 2 1 3 1 5 4 3 3 3 2 2 1 2 3 3 1 1 1 4 3 2 3 3 4 5 4 2 4 6 7 6 6 9 10 5 6 4 3 6 7 8
18 17 15 14 13 11 10 8 6 3 3 3 4 4 4 4 5 5 4 3 5 3 3 2 2 2 1 2 1 1 4 2 3 1 4 2 5 6 5 3 1 4 6 6 6 5 5 4 4 7 8 9 5 8
17 17 17 16 14 12 11 9 7 5 3 3 2 4 6 5 4 4 4 1 2 2 3 3 2 3 2 1 2 2 3 4 4 4 2 3 5 6 5 5 5 5 5 5 5 6 5 6 5 8 14 14 14 17
15 12 17 17 16 14 11 8 8 6 4 3 5 3 4 1 3 2 1 2 2 1 3 3 1 1 3 3 3 5 3 5 3 1 2 2 4 6 5 4 2 1 3 5 8 8 10 8 7 11 17 16 14 11
15 6 10 19 17 15 13 8 9 4 4 4 4 3 3 2 2 3 3 3 1 2 2 2 3 7 1 2 3 3 4 2 2 1 2 5 5 6 5 3 2 3 4 6 7 9 11 16 16 13 5 10 15 19
10 12 6 20 21 14 7 4 3 4 6 5 3 3 3 3 2 3 3 2 2 2 3 4 3 5 4 4 3 3 1 2 3 4 3 3 6 6 5 3 1 3 5 5 8 12 14 13 7 6 15 19 18 18
12 13 13 27 21 7 5 5 4 3 5 3 3 3 3 3 3 3 3 2 2 2 1 3 5 4 8 3 3 3 1 2 2 3 3 5 7 7 6 2 4 2 7 9 10 9 13 15 13 16 16 16 11 14
8 17 20 30 12 2 3 3 5 4 3 3 3 4 3 3 4 3 4 4 3 2 3 5 6 4 3 3 2 3 3 3 2 1 1 1 8 8 5 3 4 8 9 12 13 14 14 13 15 15 17 18 16 10
13 15 15 15 6 4 3 2 4 3 3 3 2 1 3 2 3 3 3 4 3 3 3 4 5 5 4 4 6 4 4 4 4 4 3 3 4 9 5 8 9 12 9 7 2 8 9 8 14 14 15 17 17 14
9 21 7 8 4 3 3 6 3 2 2 3 2 2 2 2 3 3 3 4 3 5 5 5 6 3 3 6 5 8 7 6 9 8 8 10 3 3 2 8 10 3 5 3 4 3 9 10 13 14 17 17 19 16
23 11 6 5 4 5 5 7 4 3 2 3 2 2 2 2 3 2 2 3 3 4 5 5 5 11 7 12 12 8 10 11 4 3 6 9 13 11 10 14 13 7 1 4 7 9 10 10 12 13 14 17 19 19
13 7 5 6 6 4 3 3 3 2 3 2 3 3 3 3 2 1 3 3 3 2 2 3 1 1 3 2 1 3 7 15 10 10 16 12 4 5 14 16 13 8 4 1 4 6 7 9 8 11 11 12 16 18
5 6 5 5 5 4 6 4 4 4 3 5 3 3 3 2 2 3 3 3 1 1 0 2 2 1 2 1 1 2 12 15 6 5 11 11 7 13 13 16 14 11 8 5 3 5 4 6 6 7 9 8 14 13
6 8 9 8 5 5 6 6 6 7 4 4 4 3 1 2 3 5 3 2 2 3 2 2 2 2 3 3 4 2 6 12 13 3 11 14 11 9 4 4 4 8 11 8 6 4 5 4 4 5 7 11 12 14
7 7 5 4 3 3 2 2 3 3 5 5 3 3 3 3 5 4 1 1 2 2 4 2 5 1 2 0 12 13 13 10 7 7 13 14 10 8 9 5 3 15 13 10 8 6 3 3 4 5 10 11 12 12
5 6 8 7 4 4 4 3 5 5 4 3 2 5 4 6 4 2 2 5 8 5 4 2 2 1 11 15 19 20 16 15 15 15 13 9 7 6 6 9 16 15 13 10 8 6 4 3 2 3 13 11 9 5
4 3 7 5 4 3 4 6 4 3 3 3 4 3 3 2 2 2 4 9 8 8 5 3 5 6 11 15 18 19 21 22 10 6 8 4 3 8 11 10 9 11 9 9 8 7 5 6 7 14 11 8 6 6
4 6 3 5 5 7 4 5 3 2 2 3 3 1 2 2 4 7 12 14 11 5 14 14 13 14 7 8 7 12 17 20 20 10 6 7 8 15 20 17 15 14 12 10 9 9 11 12 10 9 7 8 10 7
5 6 3 4 4 4 3 3 2 2 2 2 2 3 4 2 1 2 5 2 11 13 6 5 8 11 11 10 9 6 6 19 22 20 15 10 11 20 22 22 19 15 14 13 13 11 8 10 14 12 10 9 8 7
7 9 6 4 3 3 2 3 3 2 3 3 3 2 1 2 3 2 8 8 4 3 7 7 6 5 9 12 13 22 18 20 23 23 19 16 18 20 21 20 19 16 15 14 12 13 10 14 14 12 11 9 7 6
3 4 3 3 3 6 3 3 3 2 2 2 2 1 1 2 2 2 3 7 6 6 6 7 9 11 13 15 14 15 22 20 18 21 22 20 21 20 21 20 19 18 16 15 14 14 13 14 13 12 10 9 7 4
Wind_Direction
156 155 149 149 150 144 129 114 95 66 38 23 10 2 359 360 360 356 308 312 2 261 280 271 327 306 312 336 337 294 5 352 354 24 45 322 328 318 325 310 326 143 96 79 142 204 292 338 360 61 69 302 37 45
163 164 162 161 159 151 142 125 85 30 6 356 352 348 347 344 345 339 289 322 292 222 252 288 281 273 249 251 180 318 210 329 210 30 11 313 287 297 347 20 342 31 2 277 130 198 232 307 313 94 105 55 35 37
175 173 172 170 167 164 157 139 35 356 347 346 342 338 333 330 326 310 291 299 309 278 290 340 300 317 246 234 244 133 318 176 9 159 291 276 289 92 307 341 260 77 28 353 3 37 17 9 360 30 29 52 47 44
181 179 179 177 178 177 177 192 330 335 335 336 333 329 325 320 312 301 273 283 287 280 280 283 320 323 297 270 265 212 228 215 186 156 213 249 267 226 269 153 179 229 188 113 112 89 200 194 199 193 61 50 50 31
186 184 184 185 187 190 205 258 309 323 327 328 324 320 317 314 311 293 262 261 247 159 241 289 299 298 286 220 269 213 181 222 165 345 289 247 269 354 303 42 359 204 95 95 201 187 118 124 64 67 73 57 60 1
191 189 191 192 195 204 229 272 308 320 322 321 317 314 311 313 311 298 1 222 220 237 358 312 314 282 263 210 226 247 182 219 144 177 250 264 250 108 315 316 352 349 63 96 102 45 53 86 83 79 78 52 35 26
195 200 200 198 205 218 244 280 305 314 318 316 314 310 306 305 275 233 241 173 178 313 218 301 284 277 47 294 355 331 313 194 138 253 249 229 269 138 251 265 247 322 25 16 77 67 51 66 57 81 81 63 36 33
196 199 203 207 215 232 258 286 303 310 311 313 314 310 302 285 263 263 260 232 235 255 291 254 264 318 186 255 276 202 247 206 246 223 280 255 312 131 291 348 27 11 12 30 9 3 59 67 47 60 78 62 39 7
197 198 205 213 222 240 260 290 311 312 306 309 311 305 290 217 220 151 176 190 228 242 260 261 223 262 328 319 241 344 156 286 222 206 237 103 254 227 96 26 359 332 351 163 143 231 51 47 48 54 77 55 28 12
197 198 208 218 230 235 265 292 304 306 302 303 285 214 297 214 175 210 136 68 195 243 221 236 274 280 75 247 283 4 190 231 255 242 10 165 236 118 97 354 317 39 6 51 44 35 42 42 40 45 97 81 33 36
210 207 206 207 220 244 258 285 303 323 351 296 240 42 354 245 194 201 227 185 203 245 214 227 197 223 283 102 243 205 218 261 323 270 126 284 336 202 111 20 328 346 33 40 31 6 48 60 41 50 57 55 46 31
199 205 217 235 244 245 246 261 285 327 7 326 309 298 293 279 243 197 222 235 209 232 188 181 221 174 237 134 100 318 243 315 251 293 67 280 211 129 118 214 322 16 56 18 5 5 11 62 58 53 38 7 358 346
213 221 227 228 228 231 231 234 243 257 277 295 213 260 150 238 278 204 215 225 241 228 230 147 239 154 27 54 36 8 310 250 333 24 227 218 148 110 93 86 15 27 26 15 10 9 23 46 45 37 312 305 312 312
212 211 225 217 215 215 212 215 222 215 231 231 180 237 195 221 227 205 228 203 230 158 145 119 86 117 168 43 179 136 251 323 297 268 239 210 148 148 150 177 155 50 43 7 345 330 321 308 285 294 286 286 286 278
208 212 213 213 211 206 204 207 206 193 254 242 207 236 219 227 246 229 237 264 331 96 76 50 35 120 202 129 222 236 260 240 216 236 185 169 153 123 98 68 45 21 8 352 341 323 301 329 306 301 303 290 276 276
199 206 216 208 202 199 201 202 192 201 248 240 241 245 250 325 268 284 294 328 335 83 76 73 139 51 236 202 196 222 245 217 263 120 198 113 95 98 100 93 108 311 302 291 293 299 311 312 286 286 297 296 296 289
179 206 212 197 189 189 187 193 185 217 230 236 245 217 254 282 235 215 197 219 238 70 158 132 170 217 166 222 237 210 210 226 178 169 161 130 139 148 149 126 129 286 308 325 336 1 336 330 335 325 320 331 326 320
189 210 189 178 169 166 182 205 243 225 239 236 244 246 222 204 204 241 255 256 171 202 158 208 223 198 217 219 235 250 179 207 157 167 178 163 136 135 127 115 322 312 305 359 1 360 2 1 7 340 346 345 341 342
191 185 175 168 162 176 167 200 227 257 243 247 243 255 230 226 218 209 213 263 254 252 271 155 238 229 226 236 227 288 287 156 179 195 177 182 153 150 152 189 259 9 51 34 25 13 18 7 5 359 344 334 315 318
163 170 158 166 172 218 212 199 206 247 259 242 227 220 218 219 222 203 210 213 203 212 233 220 227 228 200 235 171 161 162 159 123 95 110 81 146 153 184 216 101 74 56 43 30 16 5 1 16 14 7 7 7 24
162 162 168 178 189 249 280 252 217 235 249 240 269 215 242 237 216 197 199 185 188 201 237 230 250 254 249 249 218 173 176 162 185 183 189 168 187 174 156 103 93 82 74 49 31 350 23 38 16 16 11 3 1 1
149 153 129 162 179 235 258 232 234 328 281 266 312 213 260 257 238 224 183 192 216 221 224 242 249 225 247 246 236 223 226 174 139 127 117 134 139 116 118 111 100 91 73 345 347 40 56 36 23 23 15 6 10 14
148 138 137 158 217 216 251 206 212 208 223 239 211 227 241 240 230 127 227 218 233 218 209 218 230 237 237 252 254 234 189 162 151 154 154 133 128 128 127 124 126 126 126 39 45 75 64 39 30 21 15 14 9 7
130 164 184 185 199 216 202 204 209 226 209 225 225 209 223 217 176 164 242 241 223 225 178 238 197 316 331 322 280 203 177 167 147 148 158 141 138 162 153 140 140 147 151 67 72 74 70 42 29 16 11 19 2 358
139 177 219 198 186 201 192 186 190 201 228 210 214 249 246 166 166 232 229 257 52 87 9 21 7 297 200 259 14 65 148 148 137 145 150 156 141 144 143 153 162 172 172 160 93 52 63 63 38 19 7 39 28 36
191 195 195 193 186 193 185 177 192 196 186 205 225 229 106 127 204 245 239 192 146 156 197 200 231 295 297 200 152 148 161 165 156 136 173 178 174 168 176 167 160 162 179 174 155 112 73 68 49 22 39 77 59 48
199 200 182 228 202 190 196 198 176 159 179 203 206 160 139 211 236 247 202 199 149 159 153 224 242 224 244 67 140 155 160 165 164 157 169 171 173 195 216 190 163 168 168 167 167 158 125 77 67 32 106 86 66 50
207 197 175 179 195 188 172 174 160 190 202 210 168 184 202 205 231 224 151 124 135 146 162 203 242 286 153 151 152 146 136 137 128 130 129 130 155 161 151 146 143 156 168 168 164 161 168 141 115 86 126 101 85 56
207 197 150 170 161 177 199 191 197 207 195 157 178 207 222 225 193 137 147 156 167 171 168 196 224 176 160 168 171 174 168 163 145 155 183 184 163 192 191 183 179 171 167 156 162 184 184 145 124 127 115 101 119 88
203 162 138 157 173 204 204 182 193 172 140 136 120 9 346 292 246 183 171 175 177 196 214 216 213 189 190 177 180 185 201 200 199 185 190 206 205 200 189 185 177 175 179 182 159 146 142 143 130 127 110 105 101 93
155 170 144 155 209 197 176 153 114 110 105 160 170 204 236 237 274 291 193 260 237 216 201 221 232 233 218 204 199 199 218 218 220 218 218 229 224 195 192 190 186 183 183 182 175 168 171 157 141 129 120 109 98 89
178 178 172 167 158 121 124 146 123 194 211 183 228 193 226 185 228 102 16 9 11 23 42 48 47 10 331 330 260 220 224 221 210 203 201 201 184 184 184 183 182 179 181 180 177 174 173 151 144 142 137 128 118 106
150 156 145 137 153 164 149 147 164 204 202 211 232 153 95 121 212 148 102 46 46 12 351 331 306 298 295 294 295 294 226 206 205 200 186 184 180 180 180 180 178 178 177 174 168 166 156 153 145 144 143 141 140 132